Time,TemperatureF,DewpointF,PressureIn,WindDirection,WindDirectionDegrees,WindSpeedMPH,WindSpeedGustMPH,Humidity,HourlyPrecipIn,Conditions,Clouds,dailyrainin,SoftwareType,DateUTC
2013-03-07 00:00:00,37.5,29.6,29.94,NW,308,4.0,4.0,73,0.00,,BKN042,0.00,VWS V14.01,2013-03-07 05:00:00,
2013-03-07 00:01:00,37.5,29.3,29.94,North,355,4.0,7.0,72,0.00,,OVC075,0.00,VWS V14.01,2013-03-07 05:01:00,
2013-03-07 00:06:00,37.7,29.2,29.94,North,355,5.0,12.0,71,0.00,,OVC075,0.00,VWS V14.01,2013-03-07 05:06:00,
2013-03-07 00:11:00,37.8,29.6,29.94,NNW,348,5.0,12.0,72,0.00,,OVC075,0.00,VWS V14.01,2013-03-07 05:11:00,
2013-03-07 00:16:00,37.9,29.4,29.94,NW,310,4.0,16.0,71,0.00,,OVC075,0.00,VWS V14.01,2013-03-07 05:16:00,
2013-03-07 00:21:00,37.9,29.4,29.94,NNW,346,13.0,16.0,71,0.00,,OVC075,0.00,VWS V14.01,2013-03-07 05:21:00,
2013-03-07 00:26:00,37.9,29.0,29.94,NNW,342,8.0,16.0,70,0.00,,OVC075,0.00,VWS V14.01,2013-03-07 05:26:00,
2013-03-07 00:31:00,37.9,29.0,29.94,NNW,336,8.0,13.0,70,0.00,,OVC075,0.00,VWS V14.01,2013-03-07 05:31:00,
2013-03-07 00:36:00,37.8,29.3,29.94,East,90,3.0,20.0,71,0.00,,OVC075,0.00,VWS V14.01,2013-03-07 05:36:00,
2013-03-07 00:41:00,37.8,29.3,29.94,ESE,109,1.0,20.0,71,0.00,,OVC075,0.00,VWS V14.01,2013-03-07 05:41:00,
2013-03-07 00:46:00,37.8,28.9,29.94,NNW,339,4.0,20.0,70,0.00,,OVC075,0.00,VWS V14.01,2013-03-07 05:46:00,
2013-03-07 00:51:00,37.8,28.9,29.94,NNW,335,4.0,20.0,70,0.00,,OVC075,0.00,VWS V14.01,2013-03-07 05:51:00,
2013-03-07 00:56:00,37.7,28.8,29.94,WSW,258,2.0,20.0,70,0.00,,OVC075,0.00,VWS V14.01,2013-03-07 05:56:00,
2013-03-07 01:01:00,37.7,28.5,29.94,North,355,6.0,9.0,69,0.00,,SCT075,0.00,VWS V14.01,2013-03-07 06:01:00,
2013-03-07 01:06:00,37.7,28.5,29.94,NW,321,3.0,14.0,69,0.00,,SCT075,0.00,VWS V14.01,2013-03-07 06:06:00,
2013-03-07 01:11:00,37.7,28.5,29.94,WNW,299,5.0,14.0,69,0.00,,SCT075,0.00,VWS V14.01,2013-03-07 06:11:00,
2013-03-07 01:16:00,37.8,28.6,29.94,North,5,7.0,14.0,69,0.00,,SCT075,0.00,VWS V14.01,2013-03-07 06:16:00,
2013-03-07 01:21:00,37.8,28.2,29.94,NW,308,8.0,14.0,68,0.00,,SCT075,0.00,VWS V14.01,2013-03-07 06:21:00,
2013-03-07 01:26:00,37.8,28.2,29.94,NNW,340,3.0,15.0,68,0.00,,SCT075,0.00,VWS V14.01,2013-03-07 06:26:00,
2013-03-07 01:31:00,37.9,28.3,29.94,North,350,10.0,16.0,68,0.00,,SCT075,0.00,VWS V14.01,2013-03-07 06:31:00,
2013-03-07 01:36:00,37.9,28.3,29.94,NNW,334,4.0,16.0,68,0.00,,SCT075,0.00,VWS V14.01,2013-03-07 06:36:00,
2013-03-07 01:41:00,37.9,28.3,29.94,NNE,24,3.0,16.0,68,0.00,,SCT075,0.00,VWS V14.01,2013-03-07 06:41:00,
2013-03-07 01:46:00,37.8,28.2,29.95,NNW,346,7.0,16.0,68,0.00,,SCT075,0.00,VWS V14.01,2013-03-07 06:46:00,
2013-03-07 01:51:00,37.8,28.2,29.94,NNE,16,4.0,16.0,68,0.00,,SCT075,0.00,VWS V14.01,2013-03-07 06:51:00,
2013-03-07 01:56:00,37.8,28.2,29.94,NNW,335,6.0,16.0,68,0.00,,SCT075,0.00,VWS V14.01,2013-03-07 06:56:00,
2013-03-07 02:01:00,37.9,27.9,29.94,NNE,17,5.0,11.0,67,0.00,,OVC080,0.00,VWS V14.01,2013-03-07 07:01:00,
2013-03-07 02:06:00,37.9,27.9,29.94,NNE,29,4.0,14.0,67,0.00,,OVC080,0.00,VWS V14.01,2013-03-07 07:06:00,
2013-03-07 02:11:00,37.8,27.8,29.94,NNW,339,7.0,14.0,67,0.00,,OVC080,0.00,VWS V14.01,2013-03-07 07:11:00,
2013-03-07 02:16:00,37.9,27.9,29.94,NW,309,7.0,17.0,67,0.00,,OVC080,0.00,VWS V14.01,2013-03-07 07:16:00,
2013-03-07 02:21:00,37.9,27.9,29.94,NNW,348,12.0,17.0,67,0.00,,OVC080,0.00,VWS V14.01,2013-03-07 07:21:00,
2013-03-07 02:26:00,37.9,27.9,29.94,North,351,4.0,17.0,67,0.00,,OVC080,0.00,VWS V14.01,2013-03-07 07:26:00,
2013-03-07 02:31:00,37.9,27.9,29.94,North,355,2.0,8.0,67,0.00,,OVC080,0.00,VWS V14.01,2013-03-07 07:31:00,
2013-03-07 02:36:00,37.9,27.9,29.94,NNE,21,5.0,11.0,67,0.00,,OVC080,0.00,VWS V14.01,2013-03-07 07:36:00,
2013-03-07 02:41:00,37.8,28.2,29.94,North,355,2.0,11.0,68,0.00,,OVC080,0.00,VWS V14.01,2013-03-07 07:41:00,
2013-03-07 02:46:00,37.8,28.2,29.94,NNW,348,6.0,12.0,68,0.00,,OVC080,0.00,VWS V14.01,2013-03-07 07:46:00,
2013-03-07 02:51:00,37.7,28.1,29.94,North,9,3.0,12.0,68,0.00,,OVC080,0.00,VWS V14.01,2013-03-07 07:51:00,
2013-03-07 02:56:00,37.7,28.5,29.95,NW,321,4.0,12.0,69,0.00,,OVC080,0.00,VWS V14.01,2013-03-07 07:56:00,
2013-03-07 03:01:00,37.6,28.7,29.95,NNW,337,8.0,8.0,70,0.00,,OVC100,0.00,VWS V14.01,2013-03-07 08:01:00,
2013-03-07 03:06:00,37.5,28.6,29.95,WNW,282,3.0,16.0,70,0.00,,OVC100,0.00,VWS V14.01,2013-03-07 08:06:00,
2013-03-07 03:11:00,37.4,28.5,29.95,NNW,345,11.0,16.0,70,0.00,,OVC100,0.00,VWS V14.01,2013-03-07 08:11:00,
2013-03-07 03:16:00,37.3,28.4,29.95,North,9,8.0,16.0,70,0.00,,OVC100,0.00,VWS V14.01,2013-03-07 08:16:00,
2013-03-07 03:21:00,37.2,28.7,29.95,NNW,333,5.0,16.0,71,0.00,,OVC100,0.00,VWS V14.01,2013-03-07 08:21:00,
2013-03-07 03:26:00,37.2,28.7,29.95,NNE,19,3.0,16.0,71,0.00,,OVC100,0.00,VWS V14.01,2013-03-07 08:26:00,
2013-03-07 03:31:00,37.1,28.6,29.96,NNE,22,6.0,11.0,71,0.00,,OVC100,0.00,VWS V14.01,2013-03-07 08:31:00,
2013-03-07 03:37:00,37.1,28.6,29.96,NNW,337,6.0,11.0,71,0.00,,OVC100,0.00,VWS V14.01,2013-03-07 08:37:00,
2013-03-07 03:42:00,37.1,28.6,29.96,NNW,333,3.0,11.0,71,0.00,,OVC100,0.00,VWS V14.01,2013-03-07 08:42:00,
2013-03-07 03:47:00,37.0,28.8,29.96,East,99,5.0,15.0,72,0.00,,OVC100,0.00,VWS V14.01,2013-03-07 08:47:00,
2013-03-07 03:52:00,36.9,29.4,29.96,North,5,7.0,15.0,74,0.00,,OVC100,0.00,VWS V14.01,2013-03-07 08:52:00,
2013-03-07 03:57:00,36.6,29.4,29.96,NNE,27,2.0,15.0,75,0.00,,OVC100,0.00,VWS V14.01,2013-03-07 08:57:00,
2013-03-07 04:02:00,36.5,29.3,29.97,NNW,338,2.0,7.0,75,0.00,,OVC037,0.00,VWS V14.01,2013-03-07 09:02:00,
2013-03-07 04:07:00,36.5,29.0,29.97,NNW,327,5.0,11.0,74,0.00,,OVC037,0.00,VWS V14.01,2013-03-07 09:07:00,
2013-03-07 04:12:00,36.5,29.0,29.97,NNW,332,9.0,14.0,74,0.00,,OVC037,0.00,VWS V14.01,2013-03-07 09:12:00,
2013-03-07 04:17:00,36.4,28.9,29.97,NNW,332,5.0,14.0,74,0.00,,OVC037,0.00,VWS V14.01,2013-03-07 09:17:00,
2013-03-07 04:22:00,36.4,28.9,29.97,NNE,17,4.0,14.0,74,0.00,,OVC037,0.00,VWS V14.01,2013-03-07 09:22:00,
2013-03-07 04:27:00,36.5,28.7,29.97,North,355,8.0,18.0,73,0.00,,OVC037,0.00,VWS V14.01,2013-03-07 09:27:00,
2013-03-07 04:32:00,36.5,28.7,29.97,NNW,348,2.0,9.0,73,0.00,,OVC037,0.00,VWS V14.01,2013-03-07 09:32:00,
2013-03-07 04:37:00,36.5,28.4,29.97,NNW,344,8.0,19.0,72,0.00,,OVC037,0.00,VWS V14.01,2013-03-07 09:37:00,
2013-03-07 04:42:00,36.5,28.4,29.98,North,360,4.0,19.0,72,0.00,,OVC037,0.00,VWS V14.01,2013-03-07 09:42:00,
2013-03-07 04:47:00,36.5,28.4,29.98,North,360,5.0,19.0,72,0.00,,OVC037,0.00,VWS V14.01,2013-03-07 09:47:00,
2013-03-07 04:52:00,36.6,28.1,29.98,NW,311,7.0,19.0,71,0.00,,OVC037,0.00,VWS V14.01,2013-03-07 09:52:00,
2013-03-07 04:58:00,36.6,28.1,29.98,NNW,344,3.0,19.0,71,0.00,,OVC037,0.00,VWS V14.01,2013-03-07 09:58:00,
2013-03-07 05:03:00,36.6,28.1,29.98,NW,310,9.0,18.0,71,0.00,,OVC100,0.00,VWS V14.01,2013-03-07 10:03:00,
2013-03-07 05:08:00,36.6,28.1,29.98,North,349,6.0,18.0,71,0.00,,OVC100,0.00,VWS V14.01,2013-03-07 10:08:00,
2013-03-07 05:13:00,36.6,27.8,29.99,NNW,332,8.0,18.0,70,0.00,,OVC100,0.00,VWS V14.01,2013-03-07 10:13:00,
2013-03-07 05:18:00,36.7,27.9,29.99,NW,312,3.0,18.0,70,0.00,,OVC100,0.00,VWS V14.01,2013-03-07 10:18:00,
2013-03-07 05:23:00,36.7,27.9,29.99,NNW,339,2.0,18.0,70,0.00,,OVC100,0.00,VWS V14.01,2013-03-07 10:23:00,
2013-03-07 05:28:00,36.6,27.8,29.99,NW,325,6.0,18.0,70,0.00,,OVC100,0.00,VWS V14.01,2013-03-07 10:28:00,
2013-03-07 05:33:00,36.6,27.8,29.99,East,84,3.0,14.0,70,0.00,,OVC100,0.00,VWS V14.01,2013-03-07 10:33:00,
2013-03-07 05:38:00,36.6,27.4,29.99,NNW,342,4.0,14.0,69,0.00,,OVC100,0.00,VWS V14.01,2013-03-07 10:38:00,
2013-03-07 05:43:00,36.6,27.4,29.99,NNW,346,6.0,15.0,69,0.00,,OVC100,0.00,VWS V14.01,2013-03-07 10:43:00,
2013-03-07 05:48:00,36.6,27.4,29.99,NW,326,5.0,15.0,69,0.00,,OVC100,0.00,VWS V14.01,2013-03-07 10:48:00,
2013-03-07 05:53:00,36.6,27.4,29.99,NW,319,5.0,15.0,69,0.00,,OVC100,0.00,VWS V14.01,2013-03-07 10:53:00,
2013-03-07 05:58:00,36.6,27.4,29.99,NNW,341,5.0,15.0,69,0.00,,OVC100,0.00,VWS V14.01,2013-03-07 10:58:00,
2013-03-07 06:03:00,36.5,27.3,29.99,ENE,76,5.0,16.0,69,0.00,,OVC100,0.00,VWS V14.01,2013-03-07 11:03:00,
2013-03-07 06:08:00,36.6,27.4,29.99,WSW,242,2.0,16.0,69,0.00,,OVC100,0.00,VWS V14.01,2013-03-07 11:08:00,
2013-03-07 06:13:00,36.5,27.3,29.99,NNW,341,4.0,16.0,69,0.00,,OVC100,0.00,VWS V14.01,2013-03-07 11:13:00,
2013-03-07 06:18:00,36.5,27.3,30.00,North,5,4.0,16.0,69,0.00,,OVC100,0.00,VWS V14.01,2013-03-07 11:18:00,
2013-03-07 06:23:00,36.5,27.3,30.00,WSW,252,7.0,16.0,69,0.00,,OVC100,0.00,VWS V14.01,2013-03-07 11:23:00,
2013-03-07 06:28:00,36.4,27.2,30.00,NNW,348,1.0,16.0,69,0.00,,OVC100,0.00,VWS V14.01,2013-03-07 11:28:00,
2013-03-07 06:33:00,36.4,27.2,30.00,NNW,329,7.0,23.0,69,0.00,,OVC100,0.00,VWS V14.01,2013-03-07 11:33:00,
2013-03-07 06:38:00,36.4,26.9,30.00,NNE,27,3.0,23.0,68,0.00,,OVC100,0.00,VWS V14.01,2013-03-07 11:38:00,
2013-03-07 06:43:00,36.4,26.9,30.00,NW,314,1.0,23.0,68,0.00,,OVC100,0.00,VWS V14.01,2013-03-07 11:43:00,
2013-03-07 06:48:00,36.4,27.2,30.00,NNW,348,8.0,23.0,69,0.00,,OVC100,0.00,VWS V14.01,2013-03-07 11:48:00,
2013-03-07 06:53:00,36.4,26.9,30.00,WNW,292,2.0,23.0,68,0.00,,OVC100,0.00,VWS V14.01,2013-03-07 11:53:00,
2013-03-07 06:58:00,36.3,26.8,30.01,ENE,73,7.0,23.0,68,0.00,,OVC100,0.00,VWS V14.01,2013-03-07 11:58:00,
2013-03-07 07:03:00,36.3,26.8,30.01,NW,304,7.0,16.0,68,0.00,,OVC037,0.00,VWS V14.01,2013-03-07 12:03:00,
2013-03-07 07:08:00,36.3,26.8,30.01,NNW,338,5.0,16.0,68,0.00,,OVC037,0.00,VWS V14.01,2013-03-07 12:08:00,
2013-03-07 07:14:00,36.4,26.9,30.01,NW,307,11.0,16.0,68,0.00,,OVC037,0.00,VWS V14.01,2013-03-07 12:14:00,
2013-03-07 07:19:00,36.3,26.8,30.02,NNW,340,8.0,22.0,68,0.00,,OVC037,0.00,VWS V14.01,2013-03-07 12:19:00,
2013-03-07 07:24:00,36.4,26.9,30.02,NE,43,2.0,22.0,68,0.00,,OVC037,0.00,VWS V14.01,2013-03-07 12:24:00,
2013-03-07 07:29:00,36.4,26.5,30.02,NNW,344,6.0,22.0,67,0.00,,OVC037,0.00,VWS V14.01,2013-03-07 12:29:00,
2013-03-07 07:34:00,36.3,26.4,30.02,NW,311,4.0,10.0,67,0.00,,OVC037,0.00,VWS V14.01,2013-03-07 12:34:00,
2013-03-07 07:39:00,36.3,26.4,30.02,NNE,18,5.0,18.0,67,0.00,,OVC037,0.00,VWS V14.01,2013-03-07 12:39:00,
2013-03-07 07:44:00,36.3,26.8,30.03,NNE,12,4.0,18.0,68,0.00,,OVC037,0.00,VWS V14.01,2013-03-07 12:44:00,
2013-03-07 07:49:00,36.3,26.4,30.03,NW,316,10.0,18.0,67,0.00,,OVC037,0.00,VWS V14.01,2013-03-07 12:49:00,
2013-03-07 07:54:00,36.4,26.5,30.03,NW,315,3.0,18.0,67,0.00,,OVC037,0.00,VWS V14.01,2013-03-07 12:54:00,
2013-03-07 07:59:00,36.4,26.9,30.03,North,11,8.0,18.0,68,0.00,,OVC037,0.00,VWS V14.01,2013-03-07 12:59:00,
2013-03-07 08:04:00,36.4,26.9,30.03,WNW,291,1.0,10.0,68,0.00,,SCT037,0.00,VWS V14.01,2013-03-07 13:04:00,
2013-03-07 08:09:00,36.6,26.7,30.03,WNW,297,1.0,11.0,67,0.00,,SCT037,0.00,VWS V14.01,2013-03-07 13:09:00,
2013-03-07 08:14:00,36.8,27.2,30.03,WNW,294,3.0,11.0,68,0.00,,SCT037,0.00,VWS V14.01,2013-03-07 13:14:00,
2013-03-07 08:19:00,37.1,27.2,30.03,NNW,345,5.0,11.0,67,0.00,,SCT037,0.00,VWS V14.01,2013-03-07 13:19:00,
2013-03-07 08:24:00,37.5,27.2,30.03,East,81,0.0,11.0,66,0.00,,SCT037,0.00,VWS V14.01,2013-03-07 13:24:00,
2013-03-07 08:29:00,37.8,27.5,30.04,NNW,334,4.0,11.0,66,0.00,,SCT037,0.00,VWS V14.01,2013-03-07 13:29:00,
2013-03-07 08:34:00,37.9,27.2,30.04,North,351,8.0,14.0,65,0.00,,SCT037,0.00,VWS V14.01,2013-03-07 13:34:00,
2013-03-07 08:39:00,37.9,26.8,30.03,WNW,294,4.0,15.0,64,0.00,,SCT037,0.00,VWS V14.01,2013-03-07 13:39:00,
2013-03-07 08:44:00,38.0,27.3,30.03,NNW,327,14.0,19.0,65,0.00,,SCT037,0.00,VWS V14.01,2013-03-07 13:44:00,
2013-03-07 08:49:00,38.3,27.2,30.03,NE,37,10.0,19.0,64,0.00,,SCT037,0.00,VWS V14.01,2013-03-07 13:49:00,
2013-03-07 08:54:00,38.6,27.5,30.03,NNW,330,4.0,19.0,64,0.00,,SCT037,0.00,VWS V14.01,2013-03-07 13:54:00,
2013-03-07 08:59:00,39.0,27.9,30.04,NW,322,4.0,19.0,64,0.00,,SCT037,0.00,VWS V14.01,2013-03-07 13:59:00,
2013-03-07 09:04:00,39.2,27.7,30.04,NE,41,8.0,12.0,63,0.00,,OVC039,0.00,VWS V14.01,2013-03-07 14:04:00,
2013-03-07 09:09:00,39.3,27.8,30.03,NW,319,4.0,13.0,63,0.00,,OVC039,0.00,VWS V14.01,2013-03-07 14:09:00,
2013-03-07 09:14:00,39.7,28.1,30.03,NNE,20,12.0,14.0,63,0.00,,OVC039,0.00,VWS V14.01,2013-03-07 14:14:00,
2013-03-07 09:19:00,40.1,28.1,30.04,NE,41,11.0,15.0,62,0.00,,OVC039,0.00,VWS V14.01,2013-03-07 14:19:00,
2013-03-07 09:24:00,40.2,27.8,30.04,WNW,300,6.0,15.0,61,0.00,,OVC039,0.00,VWS V14.01,2013-03-07 14:24:00,
2013-03-07 09:29:00,40.5,28.5,30.04,NW,306,5.0,16.0,62,0.00,,OVC039,0.00,VWS V14.01,2013-03-07 14:29:00,
2013-03-07 09:34:00,40.7,28.3,30.04,East,79,7.0,12.0,61,0.00,,OVC039,0.00,VWS V14.01,2013-03-07 14:34:00,
2013-03-07 09:39:00,41.0,28.6,30.04,WNW,292,9.0,12.0,61,0.00,,OVC039,0.00,VWS V14.01,2013-03-07 14:39:00,
2013-03-07 09:44:00,41.1,28.3,30.04,SSE,153,2.0,16.0,60,0.00,,OVC039,0.00,VWS V14.01,2013-03-07 14:44:00,
2013-03-07 09:49:00,40.7,27.9,30.04,ENE,71,4.0,16.0,60,0.00,,OVC039,0.00,VWS V14.01,2013-03-07 14:49:00,
2013-03-07 09:54:00,40.6,28.2,30.04,ESE,113,1.0,16.0,61,0.00,,OVC039,0.00,VWS V14.01,2013-03-07 14:54:00,
2013-03-07 09:59:00,40.7,27.9,30.04,NNE,28,4.0,18.0,60,0.00,,OVC039,0.00,VWS V14.01,2013-03-07 14:59:00,
2013-03-07 10:05:00,40.7,27.9,30.04,NNW,336,6.0,14.0,60,0.00,,OVC039,0.00,VWS V14.01,2013-03-07 15:05:00,
2013-03-07 10:10:00,40.8,28.4,30.05,NW,309,6.0,14.0,61,0.00,,OVC039,0.00,VWS V14.01,2013-03-07 15:10:00,
2013-03-07 10:15:00,41.0,28.6,30.05,NW,318,8.0,14.0,61,0.00,,OVC039,0.00,VWS V14.01,2013-03-07 15:15:00,
2013-03-07 10:20:00,41.3,28.5,30.05,NNE,20,15.0,16.0,60,0.00,,OVC039,0.00,VWS V14.01,2013-03-07 15:20:00,
2013-03-07 10:25:00,41.5,28.7,30.05,NNW,342,8.0,16.0,60,0.00,,OVC039,0.00,VWS V14.01,2013-03-07 15:25:00,
2013-03-07 10:30:00,41.6,28.8,30.04,NW,318,3.0,7.0,60,0.00,,OVC039,0.00,VWS V14.01,2013-03-07 15:30:00,
2013-03-07 10:35:00,41.9,29.5,30.04,North,355,2.0,10.0,61,0.00,,OVC039,0.00,VWS V14.01,2013-03-07 15:35:00,
2013-03-07 10:40:00,42.4,29.5,30.05,WSW,248,4.0,10.0,60,0.00,,OVC039,0.00,VWS V14.01,2013-03-07 15:40:00,
2013-03-07 10:45:00,42.7,29.4,30.05,WNW,302,3.0,16.0,59,0.00,,OVC039,0.00,VWS V14.01,2013-03-07 15:45:00,
2013-03-07 10:50:00,42.4,29.1,30.05,NE,46,4.0,16.0,59,0.00,,OVC039,0.00,VWS V14.01,2013-03-07 15:50:00,
2013-03-07 10:55:00,42.4,29.5,30.05,North,355,7.0,16.0,60,0.00,,OVC039,0.00,VWS V14.01,2013-03-07 15:55:00,
2013-03-07 11:00:00,42.4,29.5,30.05,NNW,329,6.0,10.0,60,0.00,,OVC049,0.00,VWS V14.01,2013-03-07 16:00:00,
2013-03-07 11:05:00,42.2,29.7,30.05,NW,315,3.0,12.0,61,0.00,,OVC049,0.00,VWS V14.01,2013-03-07 16:05:00,
2013-03-07 11:10:00,42.0,29.9,30.05,NW,315,1.0,17.0,62,0.00,,OVC049,0.00,VWS V14.01,2013-03-07 16:10:00,
2013-03-07 11:15:00,42.0,30.7,30.05,NW,318,3.0,17.0,64,0.00,,OVC049,0.00,VWS V14.01,2013-03-07 16:15:00,
2013-03-07 11:20:00,42.0,30.3,30.05,NNW,340,12.0,22.0,63,0.00,,OVC049,0.00,VWS V14.01,2013-03-07 16:20:00,
2013-03-07 11:25:00,41.7,30.4,30.05,NNW,336,9.0,22.0,64,0.00,,OVC049,0.00,VWS V14.01,2013-03-07 16:25:00,
2013-03-07 11:30:00,41.6,30.3,30.05,WSW,252,3.0,6.0,64,0.00,,OVC049,0.00,VWS V14.01,2013-03-07 16:30:00,
2013-03-07 11:35:00,42.1,30.8,30.05,NNW,331,3.0,14.0,64,0.00,,OVC049,0.00,VWS V14.01,2013-03-07 16:35:00,
2013-03-07 11:40:00,42.9,31.2,30.05,NNW,337,5.0,14.0,63,0.00,,OVC049,0.00,VWS V14.01,2013-03-07 16:40:00,
2013-03-07 11:45:00,43.2,31.1,30.05,ESE,111,5.0,17.0,62,0.00,,OVC049,0.00,VWS V14.01,2013-03-07 16:45:00,
2013-03-07 11:50:00,43.3,30.8,30.05,NNW,327,3.0,17.0,61,0.00,,OVC049,0.00,VWS V14.01,2013-03-07 16:50:00,
2013-03-07 11:55:00,43.5,30.5,30.05,NNW,335,7.0,17.0,60,0.00,,OVC049,0.00,VWS V14.01,2013-03-07 16:55:00,
2013-03-07 12:00:00,43.6,31.0,30.05,NNW,346,7.0,11.0,61,0.00,,OVC041,0.00,VWS V14.01,2013-03-07 17:00:00,
2013-03-07 12:05:00,43.7,31.1,30.04,NNE,13,7.0,11.0,61,0.00,,OVC041,0.00,VWS V14.01,2013-03-07 17:05:00,
2013-03-07 12:10:00,43.8,31.6,30.04,NNW,342,5.0,11.0,62,0.00,,OVC041,0.00,VWS V14.01,2013-03-07 17:10:00,
2013-03-07 12:15:00,43.9,31.7,30.04,NE,36,6.0,14.0,62,0.00,,OVC041,0.00,VWS V14.01,2013-03-07 17:15:00,
2013-03-07 12:20:00,44.0,32.2,30.04,NNE,21,6.0,14.0,63,0.00,,OVC041,0.00,VWS V14.01,2013-03-07 17:20:00,
2013-03-07 12:25:00,43.7,32.0,30.04,NNW,342,4.0,16.0,63,0.00,,OVC041,0.00,VWS V14.01,2013-03-07 17:25:00,
2013-03-07 12:30:00,43.8,32.4,30.04,NW,304,5.0,7.0,64,0.00,,OVC041,0.00,VWS V14.01,2013-03-07 17:30:00,
2013-03-07 12:35:00,44.0,32.2,30.04,NNW,336,3.0,10.0,63,0.00,,OVC041,0.00,VWS V14.01,2013-03-07 17:35:00,
2013-03-07 12:40:00,44.0,32.6,30.04,NNW,333,6.0,10.0,64,0.00,,OVC041,0.00,VWS V14.01,2013-03-07 17:40:00,
2013-03-07 12:46:00,43.9,32.9,30.04,West,263,0.0,10.0,65,0.00,,OVC041,0.00,VWS V14.01,2013-03-07 17:46:00,
2013-03-07 12:51:00,43.7,33.1,30.04,North,355,10.0,12.0,66,0.00,,OVC041,0.00,VWS V14.01,2013-03-07 17:51:00,
2013-03-07 12:56:00,43.2,33.4,30.05,WNW,302,4.0,14.0,68,0.00,,OVC041,0.00,VWS V14.01,2013-03-07 17:56:00,
2013-03-07 13:01:00,43.0,33.2,30.04,NW,318,5.0,7.0,68,0.00,,OVC045,0.00,VWS V14.01,2013-03-07 18:01:00,
2013-03-07 13:06:00,42.9,33.8,30.04,NW,315,6.0,7.0,70,0.00,,OVC045,0.00,VWS V14.01,2013-03-07 18:06:00,
2013-03-07 13:11:00,42.4,32.6,30.04,North,355,1.0,10.0,68,0.00,,OVC045,0.00,VWS V14.01,2013-03-07 18:11:00,
2013-03-07 13:16:00,42.2,32.8,30.04,NNW,338,5.0,10.0,69,0.00,,OVC045,0.00,VWS V14.01,2013-03-07 18:16:00,
2013-03-07 13:21:00,42.0,33.6,30.04,North,349,7.0,12.0,72,0.00,,OVC045,0.00,VWS V14.01,2013-03-07 18:21:00,
2013-03-07 13:26:00,41.9,33.5,30.03,NE,46,1.0,13.0,72,0.00,,OVC045,0.00,VWS V14.01,2013-03-07 18:26:00,
2013-03-07 13:31:00,42.2,33.8,30.04,NNW,329,1.0,11.0,72,0.00,,OVC045,0.00,VWS V14.01,2013-03-07 18:31:00,
2013-03-07 13:36:00,42.4,34.0,30.04,WNW,301,3.0,11.0,72,0.00,,OVC045,0.00,VWS V14.01,2013-03-07 18:36:00,
2013-03-07 13:41:00,42.7,34.7,30.04,NNW,329,7.0,12.0,73,0.00,,OVC045,0.00,VWS V14.01,2013-03-07 18:41:00,
2013-03-07 13:46:00,42.7,35.0,30.04,NW,315,3.0,12.0,74,0.00,,OVC045,0.00,VWS V14.01,2013-03-07 18:46:00,
2013-03-07 13:51:00,42.6,34.6,30.04,WNW,294,4.0,13.0,73,0.00,,OVC045,0.00,VWS V14.01,2013-03-07 18:51:00,
2013-03-07 13:56:00,42.3,35.3,30.04,NW,306,4.0,13.0,76,0.00,,OVC045,0.00,VWS V14.01,2013-03-07 18:56:00,
2013-03-07 14:01:00,42.2,34.9,30.04,North,355,8.0,10.0,75,0.00,,OVC049,0.00,VWS V14.01,2013-03-07 19:01:00,
2013-03-07 14:06:00,42.2,34.5,30.04,NNW,344,3.0,12.0,74,0.00,,OVC049,0.00,VWS V14.01,2013-03-07 19:06:00,
2013-03-07 14:11:00,42.4,34.4,30.04,WNW,293,4.0,12.0,73,0.00,,OVC049,0.00,VWS V14.01,2013-03-07 19:11:00,
2013-03-07 14:16:00,42.5,34.1,30.04,NW,309,3.0,12.0,72,0.00,,OVC049,0.00,VWS V14.01,2013-03-07 19:16:00,
2013-03-07 14:21:00,42.7,34.7,30.04,NW,304,7.0,12.0,73,0.00,,OVC049,0.00,VWS V14.01,2013-03-07 19:21:00,
2013-03-07 14:26:00,42.7,35.3,30.05,WNW,287,3.0,12.0,75,0.00,,OVC049,0.00,VWS V14.01,2013-03-07 19:26:00,
2013-03-07 14:31:00,42.5,35.2,30.04,NNW,333,5.0,9.0,75,0.00,,OVC049,0.00,VWS V14.01,2013-03-07 19:31:00,
2013-03-07 14:37:00,42.2,34.9,30.05,NNW,340,8.0,14.0,75,0.00,,OVC049,0.00,VWS V14.01,2013-03-07 19:37:00,
2013-03-07 14:42:00,42.0,34.3,30.04,NW,320,8.0,14.0,74,0.00,,OVC049,0.00,VWS V14.01,2013-03-07 19:42:00,
2013-03-07 14:47:00,42.0,34.3,30.04,NW,325,5.0,14.0,74,0.00,,OVC049,0.00,VWS V14.01,2013-03-07 19:47:00,
2013-03-07 14:52:00,42.1,34.8,30.05,NW,309,4.0,14.0,75,0.00,,OVC049,0.00,VWS V14.01,2013-03-07 19:52:00,
2013-03-07 14:57:00,42.3,34.3,30.05,NNW,335,4.0,14.0,73,0.00,,OVC049,0.00,VWS V14.01,2013-03-07 19:57:00,
2013-03-07 15:02:00,42.3,34.3,30.05,NW,326,5.0,8.0,73,0.00,,OVC049,0.00,VWS V14.01,2013-03-07 20:02:00,
2013-03-07 15:07:00,42.3,33.9,30.05,WNW,294,6.0,10.0,72,0.00,,OVC049,0.00,VWS V14.01,2013-03-07 20:07:00,
2013-03-07 15:12:00,42.3,33.2,30.05,NW,321,7.0,10.0,70,0.00,,OVC049,0.00,VWS V14.01,2013-03-07 20:12:00,
2013-03-07 15:17:00,42.3,33.2,30.05,NW,319,4.0,13.0,70,0.00,,OVC049,0.00,VWS V14.01,2013-03-07 20:17:00,
2013-03-07 15:22:00,42.2,33.5,30.05,NNW,345,8.0,13.0,71,0.00,,OVC049,0.00,VWS V14.01,2013-03-07 20:22:00,
2013-03-07 15:27:00,42.1,33.7,30.06,North,355,8.0,13.0,72,0.00,,OVC049,0.00,VWS V14.01,2013-03-07 20:27:00,
2013-03-07 15:32:00,41.8,33.5,30.06,NNE,15,6.0,12.0,72,0.00,,OVC049,0.00,VWS V14.01,2013-03-07 20:32:00,
2013-03-07 15:37:00,41.8,33.8,30.06,NNW,329,6.0,12.0,73,0.00,,OVC049,0.00,VWS V14.01,2013-03-07 20:37:00,
2013-03-07 15:42:00,41.7,34.0,30.06,NNE,17,7.0,12.0,74,0.00,,OVC049,0.00,VWS V14.01,2013-03-07 20:42:00,
2013-03-07 15:47:00,41.6,34.6,30.06,NW,313,5.0,15.0,76,0.00,,OVC049,0.00,VWS V14.01,2013-03-07 20:47:00,
2013-03-07 15:52:00,41.4,34.7,30.06,NW,315,10.0,15.0,77,0.00,,-RA,0.00,VWS V14.01,2013-03-07 20:52:00,
2013-03-07 15:57:00,41.2,34.5,30.06,West,264,6.0,15.0,77,0.00,,-RA,0.00,VWS V14.01,2013-03-07 20:57:00,
2013-03-07 16:02:00,41.2,34.9,30.07,NNW,334,8.0,10.0,78,0.00,,-RA,0.00,VWS V14.01,2013-03-07 21:02:00,
2013-03-07 16:07:00,41.2,34.9,30.07,NW,319,8.0,15.0,78,0.00,,-RA,0.00,VWS V14.01,2013-03-07 21:07:00,
2013-03-07 16:12:00,41.1,34.8,30.07,NW,317,6.0,15.0,78,0.00,,-RA,0.00,VWS V14.01,2013-03-07 21:12:00,
2013-03-07 16:17:00,40.9,34.6,30.07,NW,320,2.0,15.0,78,0.00,,-RA,0.00,VWS V14.01,2013-03-07 21:17:00,
2013-03-07 16:22:00,40.7,34.7,30.07,NNW,338,5.0,15.0,79,0.00,,-RA,0.00,VWS V14.01,2013-03-07 21:22:00,
2013-03-07 16:27:00,40.6,34.9,30.07,NNE,26,5.0,15.0,80,0.00,,-RA,0.00,VWS V14.01,2013-03-07 21:27:00,
2013-03-07 16:32:00,40.5,35.1,30.08,WNW,301,4.0,5.0,81,0.00,,-RA,0.00,VWS V14.01,2013-03-07 21:32:00,
2013-03-07 16:37:00,40.4,35.3,30.08,NNW,333,3.0,12.0,82,0.00,,-RA,0.00,VWS V14.01,2013-03-07 21:37:00,
2013-03-07 16:42:00,40.1,35.1,30.08,NNW,338,8.0,12.0,82,0.00,,-RA,0.00,VWS V14.01,2013-03-07 21:42:00,
2013-03-07 16:47:00,39.8,35.1,30.08,North,350,2.0,12.0,83,0.00,,-RA,0.00,VWS V14.01,2013-03-07 21:47:00,
2013-03-07 16:52:00,39.5,35.4,30.08,NW,307,2.0,12.0,85,0.00,,-RA,0.00,VWS V14.01,2013-03-07 21:52:00,
2013-03-07 16:57:00,39.3,35.2,30.08,North,5,5.0,12.0,85,0.01,,-RA,0.01,VWS V14.01,2013-03-07 21:57:00,
2013-03-07 17:03:00,39.0,35.2,30.08,NW,325,8.0,12.0,86,0.01,,-RA,0.01,VWS V14.01,2013-03-07 22:03:00,
2013-03-07 17:08:00,38.8,35.0,30.09,NNW,339,4.0,13.0,86,0.01,,-RA,0.01,VWS V14.01,2013-03-07 22:08:00,
2013-03-07 17:13:00,38.6,35.1,30.09,North,350,5.0,13.0,87,0.01,,-RA,0.01,VWS V14.01,2013-03-07 22:13:00,
2013-03-07 17:18:00,38.4,34.9,30.09,NW,309,8.0,13.0,87,0.01,,-RA,0.01,VWS V14.01,2013-03-07 22:18:00,
2013-03-07 17:23:00,38.2,35.0,30.09,NW,324,4.0,13.0,88,0.01,,-RA,0.01,VWS V14.01,2013-03-07 22:23:00,
2013-03-07 17:28:00,38.0,35.0,30.09,WNW,298,5.0,13.0,89,0.01,,-RA,0.01,VWS V14.01,2013-03-07 22:28:00,
2013-03-07 17:33:00,37.9,35.0,30.09,NNW,343,7.0,13.0,89,0.01,,-RA,0.01,VWS V14.01,2013-03-07 22:33:00,
2013-03-07 17:38:00,37.8,35.1,30.09,WNW,290,2.0,13.0,90,0.01,,-RA,0.01,VWS V14.01,2013-03-07 22:38:00,
2013-03-07 17:43:00,37.8,35.1,30.09,NW,315,5.0,13.0,90,0.01,,-RA,0.01,VWS V14.01,2013-03-07 22:43:00,
2013-03-07 17:48:00,37.7,35.0,30.09,NW,317,7.0,13.0,90,0.01,,-RA,0.01,VWS V14.01,2013-03-07 22:48:00,
2013-03-07 17:53:00,37.6,34.9,30.10,NNW,345,4.0,13.0,90,0.01,,-RA,0.01,VWS V14.01,2013-03-07 22:53:00,
2013-03-07 17:58:00,37.5,34.8,30.09,NNW,331,9.0,13.0,90,0.01,,-RA,0.01,VWS V14.01,2013-03-07 22:58:00,
2013-03-07 18:03:00,37.3,34.4,30.10,WNW,298,4.0,16.0,89,0.00,,-RA,0.01,VWS V14.01,2013-03-07 23:03:00,
2013-03-07 18:08:00,37.3,34.4,30.10,WNW,300,2.0,16.0,89,0.00,,-RA,0.01,VWS V14.01,2013-03-07 23:08:00,
2013-03-07 18:13:00,37.2,34.3,30.10,NNW,329,2.0,16.0,89,0.00,,-RA,0.01,VWS V14.01,2013-03-07 23:13:00,
2013-03-07 18:18:00,37.1,34.2,30.10,NNW,327,5.0,16.0,89,0.00,,-RA,0.01,VWS V14.01,2013-03-07 23:18:00,
2013-03-07 18:23:00,37.0,34.1,30.10,NNW,343,6.0,16.0,89,0.00,,-RA,0.01,VWS V14.01,2013-03-07 23:23:00,
2013-03-07 18:28:00,36.9,34.2,30.10,WNW,294,10.0,16.0,90,0.00,,-RA,0.01,VWS V14.01,2013-03-07 23:28:00,
2013-03-07 18:33:00,36.8,34.2,30.11,NNW,337,6.0,7.0,90,0.01,,-RA,0.02,VWS V14.01,2013-03-07 23:33:00,
2013-03-07 18:38:00,36.6,34.0,30.11,NW,306,9.0,9.0,90,0.01,,-RA,0.02,VWS V14.01,2013-03-07 23:38:00,
2013-03-07 18:43:00,36.5,33.8,30.11,NW,326,2.0,9.0,90,0.01,,-RA,0.02,VWS V14.01,2013-03-07 23:43:00,
2013-03-07 18:48:00,36.4,33.8,30.11,NW,324,2.0,9.0,90,0.01,,-RA,0.02,VWS V14.01,2013-03-07 23:48:00,
2013-03-07 18:53:00,36.3,33.7,30.11,NNW,339,2.0,9.0,90,0.01,,-RA,0.02,VWS V14.01,2013-03-07 23:53:00,
2013-03-07 18:58:00,36.2,33.6,30.11,North,349,3.0,9.0,90,0.01,,-RA,0.02,VWS V14.01,2013-03-07 23:58:00,
2013-03-07 19:03:00,36.1,33.5,30.11,North,5,7.0,8.0,90,0.01,,OVC036,0.02,VWS V14.01,2013-03-08 00:03:00,
2013-03-07 19:08:00,36.0,33.4,30.11,NW,313,4.0,9.0,90,0.01,,OVC036,0.02,VWS V14.01,2013-03-08 00:08:00,
2013-03-07 19:13:00,36.0,33.4,30.11,WNW,298,7.0,9.0,90,0.01,,OVC036,0.02,VWS V14.01,2013-03-08 00:13:00,
2013-03-07 19:18:00,35.9,33.3,30.11,NNW,333,7.0,9.0,90,0.01,,OVC036,0.02,VWS V14.01,2013-03-08 00:18:00,
2013-03-07 19:23:00,35.8,33.2,30.11,NW,319,3.0,9.0,90,0.01,,OVC036,0.02,VWS V14.01,2013-03-08 00:23:00,
2013-03-07 19:28:00,35.7,33.1,30.11,WNW,294,9.0,10.0,90,0.01,,,0.02,VWS V14.01,2013-03-08 00:28:00,
2013-03-07 19:33:00,35.6,33.0,30.11,NNW,348,3.0,10.0,90,0.01,,,0.02,VWS V14.01,2013-03-08 00:33:00,
2013-03-07 19:38:00,35.4,32.8,30.11,NW,306,9.0,13.0,90,0.01,,,0.02,VWS V14.01,2013-03-08 00:38:00,
2013-03-07 19:43:00,35.3,32.7,30.11,NNW,327,5.0,13.0,90,0.01,,,0.02,VWS V14.01,2013-03-08 00:43:00,
2013-03-07 19:48:00,35.2,32.6,30.11,NNW,336,3.0,13.0,90,0.01,,,0.02,VWS V14.01,2013-03-08 00:48:00,
2013-03-07 19:54:00,35.1,32.7,30.11,NW,326,3.0,13.0,91,0.01,,,0.02,VWS V14.01,2013-03-08 00:54:00,
2013-03-07 19:59:00,35.0,32.6,30.11,NNW,343,5.0,13.0,91,0.02,,,0.03,VWS V14.01,2013-03-08 00:59:00,
2013-03-07 20:04:00,35.0,32.6,30.11,WNW,292,1.0,11.0,91,0.01,,,0.03,VWS V14.01,2013-03-08 01:04:00,
2013-03-07 20:09:00,34.8,32.5,30.11,NNW,329,3.0,11.0,91,0.01,,,0.03,VWS V14.01,2013-03-08 01:09:00,
2013-03-07 20:14:00,34.7,32.3,30.11,WSW,254,2.0,11.0,91,0.01,,,0.03,VWS V14.01,2013-03-08 01:14:00,
2013-03-07 20:19:00,34.7,32.6,30.11,WNW,295,5.0,11.0,92,0.01,,,0.03,VWS V14.01,2013-03-08 01:19:00,
2013-03-07 20:24:00,34.7,32.6,30.10,East,99,3.0,11.0,92,0.01,,OVC030,0.03,VWS V14.01,2013-03-08 01:24:00,
2013-03-07 20:29:00,34.6,32.5,30.10,NNW,339,3.0,11.0,92,0.01,,OVC030,0.03,VWS V14.01,2013-03-08 01:29:00,
2013-03-07 20:34:00,34.6,32.5,30.11,NNW,333,3.0,11.0,92,0.01,,OVC030,0.03,VWS V14.01,2013-03-08 01:34:00,
2013-03-07 20:39:00,34.6,32.5,30.10,NW,306,4.0,11.0,92,0.01,,OVC030,0.03,VWS V14.01,2013-03-08 01:39:00,
2013-03-07 20:44:00,34.6,32.5,30.10,NNW,335,8.0,13.0,92,0.01,,OVC030,0.03,VWS V14.01,2013-03-08 01:44:00,
2013-03-07 20:49:00,34.6,32.5,30.10,NW,323,7.0,13.0,92,0.01,,OVC030,0.03,VWS V14.01,2013-03-08 01:49:00,
2013-03-07 20:54:00,34.6,32.5,30.10,NNW,348,5.0,13.0,92,0.01,,OVC030,0.03,VWS V14.01,2013-03-08 01:54:00,
2013-03-07 20:59:00,34.6,32.5,30.10,North,350,4.0,13.0,92,0.01,,OVC030,0.03,VWS V14.01,2013-03-08 01:59:00,
2013-03-07 21:04:00,34.6,32.5,30.10,WNW,290,4.0,10.0,92,0.00,,OVC049,0.03,VWS V14.01,2013-03-08 02:04:00,
2013-03-07 21:09:00,34.7,32.6,30.10,WNW,303,3.0,10.0,92,0.00,,OVC049,0.03,VWS V14.01,2013-03-08 02:09:00,
2013-03-07 21:14:00,34.7,32.3,30.10,NW,316,5.0,11.0,91,0.00,,OVC049,0.03,VWS V14.01,2013-03-08 02:14:00,
2013-03-07 21:19:00,34.7,32.3,30.09,WNW,286,4.0,11.0,91,0.00,,OVC049,0.03,VWS V14.01,2013-03-08 02:19:00,
2013-03-07 21:24:00,34.8,32.5,30.10,NNW,332,7.0,11.0,91,0.00,,OVC049,0.03,VWS V14.01,2013-03-08 02:24:00,
2013-03-07 21:29:00,34.8,32.5,30.09,North,349,2.0,4.0,91,0.00,,OVC049,0.03,VWS V14.01,2013-03-08 02:29:00,
2013-03-07 21:35:00,34.8,32.5,30.09,NNW,327,4.0,15.0,91,0.00,,OVC049,0.03,VWS V14.01,2013-03-08 02:35:00,
2013-03-07 21:40:00,34.8,32.2,30.09,NW,325,3.0,15.0,90,0.00,,OVC049,0.03,VWS V14.01,2013-03-08 02:40:00,
2013-03-07 21:45:00,34.8,32.2,30.09,NNW,343,0.0,15.0,90,0.00,,OVC049,0.03,VWS V14.01,2013-03-08 02:45:00,
2013-03-07 21:50:00,34.8,32.2,30.09,WNW,296,1.0,15.0,90,0.00,,OVC049,0.03,VWS V14.01,2013-03-08 02:50:00,
2013-03-07 21:55:00,34.8,32.2,30.09,WNW,300,6.0,15.0,90,0.00,,OVC049,0.03,VWS V14.01,2013-03-08 02:55:00,
2013-03-07 22:00:00,34.8,32.2,30.09,NW,323,8.0,10.0,90,0.00,,OVC040,0.03,VWS V14.01,2013-03-08 03:00:00,
2013-03-07 22:05:00,34.8,32.2,30.10,NW,319,2.0,11.0,90,0.00,,OVC040,0.03,VWS V14.01,2013-03-08 03:05:00,
2013-03-07 22:10:00,34.7,32.1,30.09,NW,314,4.0,11.0,90,0.00,,OVC040,0.03,VWS V14.01,2013-03-08 03:10:00,
2013-03-07 22:15:00,34.7,32.1,30.09,NW,314,3.0,11.0,90,0.00,,OVC040,0.03,VWS V14.01,2013-03-08 03:15:00,
2013-03-07 22:20:00,34.6,32.0,30.09,NW,315,3.0,11.0,90,0.00,,OVC040,0.03,VWS V14.01,2013-03-08 03:20:00,
2013-03-07 22:25:00,34.5,31.9,30.09,North,350,6.0,11.0,90,0.00,,OVC040,0.03,VWS V14.01,2013-03-08 03:25:00,
2013-03-07 22:30:00,34.5,31.9,30.09,WNW,298,3.0,5.0,90,0.00,,OVC040,0.03,VWS V14.01,2013-03-08 03:30:00,
2013-03-07 22:35:00,34.5,31.9,30.09,NNW,342,6.0,8.0,90,0.00,,OVC040,0.03,VWS V14.01,2013-03-08 03:35:00,
2013-03-07 22:40:00,34.5,31.9,30.09,NNW,346,5.0,13.0,90,0.00,,OVC040,0.03,VWS V14.01,2013-03-08 03:40:00,
2013-03-07 22:45:00,34.5,31.9,30.09,NNW,335,5.0,13.0,90,0.00,,OVC040,0.03,VWS V14.01,2013-03-08 03:45:00,
2013-03-07 22:50:00,34.5,31.9,30.09,WNW,296,4.0,13.0,90,0.00,,OVC040,0.03,VWS V14.01,2013-03-08 03:50:00,
2013-03-07 22:55:00,34.4,31.8,30.09,NW,309,2.0,13.0,90,0.00,,OVC040,0.03,VWS V14.01,2013-03-08 03:55:00,
2013-03-07 23:00:00,34.4,31.8,30.09,NW,321,3.0,7.0,90,0.00,,,0.03,VWS V14.01,2013-03-08 04:00:00,
2013-03-07 23:05:00,34.4,31.8,30.09,NW,307,3.0,7.0,90,0.00,,,0.03,VWS V14.01,2013-03-08 04:05:00,
2013-03-07 23:10:00,34.3,31.7,30.09,NW,320,3.0,7.0,90,0.00,,,0.03,VWS V14.01,2013-03-08 04:10:00,
2013-03-07 23:15:00,34.3,31.7,30.09,NW,315,4.0,9.0,90,0.00,,,0.03,VWS V14.01,2013-03-08 04:15:00,
2013-03-07 23:20:00,34.2,31.6,30.09,West,281,1.0,9.0,90,0.00,,,0.03,VWS V14.01,2013-03-08 04:20:00,
2013-03-07 23:25:00,34.1,31.8,30.09,WNW,296,6.0,10.0,91,0.00,,,0.03,VWS V14.01,2013-03-08 04:25:00,
2013-03-07 23:30:00,34.0,31.6,30.09,NNW,337,2.0,5.0,91,0.00,,,0.03,VWS V14.01,2013-03-08 04:30:00,
2013-03-07 23:36:00,33.9,31.6,30.09,West,278,9.0,9.0,91,0.00,,,0.03,VWS V14.01,2013-03-08 04:36:00,
2013-03-07 23:41:00,33.7,31.4,30.09,NNW,329,4.0,9.0,91,0.00,,,0.03,VWS V14.01,2013-03-08 04:41:00,
2013-03-07 23:46:00,33.6,31.3,30.09,NNW,327,3.0,9.0,91,0.00,,,0.03,VWS V14.01,2013-03-08 04:46:00,
2013-03-07 23:51:00,33.4,31.3,30.09,NW,319,2.0,9.0,92,0.00,,,0.03,VWS V14.01,2013-03-08 04:51:00,
2013-03-07 23:56:00,33.3,31.2,30.09,NW,315,1.0,9.0,92,0.00,,,0.03,VWS V14.01,2013-03-08 04:56:00,